User: anonymous   Login
Location: Jaite
(41.2884°N, 81.5737°W)
Time: 07:16:31
(UTC+00:00)
Language:

Meteor 2-17 Rocket - Orbit

View from above orbital plane
View from above orbital plane
View from above satellite
View from above satellite

Ground track
Ground track

The orbit is defined by the following mean orbital elements,

1 18821U          26017.88375767 +.00000000 +00000-0 +31781-4 0 00004
2 18821  82.5417  85.2294 0015001 152.0232 208.1738 13.85218749    08
Epoch (UTC): 17 January 2026 21:12:36
Eccentricity: 0.0015001
inclination: 82.5417°
perigee height: 934 km
apogee height: 956 km
right ascension of ascending node: 85.2294°
argument of perigee: 152.0232°
revolutions per day: 13.85218749
mean anomaly at epoch: 208.1738°

The dashed part of the orbit path shows where the satellite is in the earth's shadow,  

DLR